Location: Goudex
(43.3760°N, 0.9543°E)
Time: 23:47:48
(UTC+00:00)

NOSS 3-4 (A) - Pass Details

Date: 20 November 2019
Orbit: 907 x 1306 km, 63.4° (Epoch: 11 December)

Event Time Altitude Azimuth Distance (km) Brightness Sun altitude
Exits shadow 04:19:35 30° 342° (NNW) 1,891 4.8 -28.1°
Maximum altitude 04:23:10 58° 48° (NE) 1,335 4.3 -27.4°
Drops below altitude 10° 04:30:42 10° 126° (SE) 3,187 6.9 -26.1°
Sets 04:33:39 0° 131° (SE) 4,195 7.6 -25.5°
